Location: Tel Aviv
(32.0670°N, 34.7670°E)
Time: 23:58:26
(UTC+03:00)

Transit 2A Rocket - Visible Passes

Search period start: 15 July 2024 00:00
Search period end: 25 July 2024 00:00
Orbit: 582 x 910 km, 66.7° (Epoch: 15 July)

Date Brightness Start Highest point End Pass type
(mag) Time Alt. Az. Time Alt. Az. Time Alt. Az.
15 Jul 6.9 01:14:30 10° NW 01:17:11 26° NW 01:17:11 26° NW visible
15 Jul 7.5 22:50:15 10° NNE 22:52:55 13° NE 22:54:07 12° ENE visible
16 Jul 6.5 00:30:14 10° NNW 00:33:53 38° NNW 00:33:53 38° NNW visible
16 Jul 6.4 23:46:18 10° NNW 23:50:38 39° NNE 23:50:38 39° NNE visible
17 Jul 7.7 01:29:50 10° WNW 01:30:24 12° WNW 01:30:24 12° WNW visible
17 Jul 6.7 23:02:40 10° N 23:07:25 28° NE 23:07:25 28° NE visible
18 Jul 7.2 00:44:50 10° NW 00:47:11 23° NW 00:47:11 23° NW visible
18 Jul 7.2 22:19:31 10° NNE 22:23:15 17° NE 22:24:15 16° ENE visible
19 Jul 6.5 00:00:23 10° NNW 00:04:01 38° NW 00:04:01 38° NW visible
19 Jul 6.0 23:16:17 10° NNW 23:20:54 49° N 23:20:54 49° N visible
20 Jul 6.2 22:32:29 10° N 22:37:50 35° NE 22:37:50 35° NE visible
21 Jul 7.2 00:15:14 10° NW 00:17:36 21° WNW 00:17:36 21° WNW visible
21 Jul 6.8 21:49:04 10° N 21:53:32 21° NE 21:54:47 20° ENE visible
21 Jul 6.4 23:30:34 10° NW 23:34:34 39° WNW 23:34:34 39° WNW visible
22 Jul 7.4 21:06:33 10° NNE 21:08:55 12° NE 21:11:13 10° ENE visible
22 Jul 5.5 22:46:18 10° NNW 22:51:34 67° N 22:51:34 67° N visible
23 Jul 5.7 22:02:22 10° NNW 22:08:09 45° ENE 22:08:37 44° ENE visible
23 Jul 7.3 23:45:48 10° NW 23:48:24 19° W 23:48:24 19° W visible
24 Jul 6.5 21:18:45 10° N 21:23:45 26° NE 21:25:42 22° E visible
24 Jul 6.3 23:00:50 10° NW 23:05:29 39° W 23:05:29 39° W visible
